Weather History for Grosse Ile, MI

Change the Weather History Date:

Wednesday, March 13, 2013

  Actual Average (KDTW) Record (KDTW)
Temperature  
Mean Temperature 30 °F 36 °F  
Max Temperature 33 °F 44 °F 73 °F (1990)
Min Temperature 26 °F 27 °F 3 °F (2014)
Degree Days  
Heating Degree Days 36 29  
Month to date heating degree days 406  
Since 1 July heating degree days 4959  
Cooling Degree Days 0 0  
Month to date cooling degree days 0  
Year to date cooling degree days 0  
Moisture  
Dew Point 20 °F    
Average Humidity 67    
Maximum Humidity 93    
Minimum Humidity 51    
Precipitation  
Precipitation 0.00 in 0.06 in 1.58 in (1918)
Month to date precipitation 0.91  
Year to date precipitation 4.89  
Snow  
Snow 0.00 in 0.30 in 5.00 in (1891)
Month to date snowfall 3.7  
Since 1 July snowfall 37.6  
Snow Depth -    
Sea Level Pressure  
Sea Level Pressure 29.99 in    
Wind  
Wind Speed 11 mph (West)    
Max Wind Speed 21 mph    
Max Gust Speed 29 mph    
Visibility 9 miles    
Events Snow    
T = Trace of Precipitation, MM = Missing Value Source: NWS Daily Summary

Daily Weather History Graph

Daily Weather History Graph

Search for Another Location

Airport:

Trip Planner

Search our weather history database for the weather conditions in past years. The results will help you decide how hot, cold, wet, or windy it might be!

Date:

Astronomy

Mar. 13, 2013 Rise Set
Actual Time 7:47 AM EDT 7:37 PM EDT
Civil Twilight 7:19 AM EDT 8:05 PM EDT
Nautical Twilight 6:47 AM EDT 8:37 PM EDT
Astronomical Twilight 6:14 AM EDT 9:10 PM EDT
Moon 8:23 AM EDT (3/13) 9:56 PM EDT (3/13)
Length of Visible Light 12h 45m
Length of Day
11h 49m
Waxing Crescent, 4% of the Moon is Illuminated
Mar 13
Waxing Crescent
Mar 19
First Quarter
Mar 27
Full
Apr 3
Last Quarter
Apr 10
New

Hourly Weather History & Observations

Time (EDT) Temp. Windchill Dew Point Humidity Pressure Visibility Wind Dir Wind Speed Gust Speed Precip Events Conditions
12:14 AM 32.0 °F 26.4 °F 24.8 °F 75% 29.90 in 10.0 mi SSW 5.8 mph - N/A   Overcast
12:34 AM 33.8 °F 26.4 °F 26.6 °F 75% 29.90 in 10.0 mi SW 9.2 mph - N/A   Overcast
12:54 AM 32.0 °F 25.6 °F 26.6 °F 80% 29.89 in 10.0 mi SW 6.9 mph - N/A   Overcast
1:14 AM 32.0 °F 24.8 °F 26.6 °F 80% 29.89 in 10.0 mi SW 8.1 mph - N/A   Overcast
1:54 AM 30.2 °F 23.4 °F 26.6 °F 86% 29.88 in 10.0 mi SW 6.9 mph - N/A   Overcast
2:14 AM 30.2 °F 23.4 °F 26.6 °F 86% 29.88 in 10.0 mi SW 6.9 mph - N/A   Overcast
2:34 AM 30.2 °F 21.3 °F 26.6 °F 86% 29.87 in 10.0 mi SW 10.4 mph - N/A   Overcast
2:54 AM 30.2 °F 23.4 °F 26.6 °F 86% 29.87 in 10.0 mi SW 6.9 mph - N/A   Scattered Clouds
3:34 AM 30.2 °F 22.6 °F 26.6 °F 86% 29.86 in 10.0 mi SW 8.1 mph - N/A   Mostly Cloudy
3:54 AM 30.2 °F 21.9 °F 26.6 °F 86% 29.86 in 10.0 mi SW 9.2 mph - N/A   Overcast
4:14 AM 30.2 °F 21.3 °F 24.8 °F 80% 29.85 in 10.0 mi SW 10.4 mph 17.3 mph N/A   Scattered Clouds
4:54 AM 30.2 °F 20.8 °F 24.8 °F 80% 29.85 in 10.0 mi SW 11.5 mph 19.6 mph N/A   Scattered Clouds
5:14 AM 30.2 °F 21.3 °F 24.8 °F 80% 29.85 in 7.0 mi WSW 10.4 mph 16.1 mph N/A Snow Light Snow
5:34 AM 30.2 °F 20.2 °F 26.6 °F 86% 29.86 in 5.0 mi West 12.7 mph 19.6 mph N/A Snow Light Snow
6:14 AM 28.4 °F 18.5 °F 24.8 °F 86% 29.87 in 7.0 mi West 11.5 mph 16.1 mph N/A Snow Light Snow
6:34 AM 30.2 °F 21.3 °F 23.0 °F 75% 29.87 in 10.0 mi West 10.4 mph - N/A   Overcast
6:54 AM 30.2 °F 21.3 °F 21.2 °F 69% 29.88 in 10.0 mi West 10.4 mph - N/A   Overcast
7:14 AM 28.4 °F 19.1 °F 23.0 °F 80% 29.89 in 10.0 mi West 10.4 mph - N/A   Overcast
7:34 AM 28.4 °F 18.0 °F 21.2 °F 74% 29.90 in 10.0 mi West 12.7 mph 18.4 mph N/A   Overcast
7:54 AM 28.4 °F 19.7 °F 21.2 °F 74% 29.90 in 10.0 mi West 9.2 mph - N/A   Overcast
8:14 AM 28.4 °F 21.2 °F 23.0 °F 80% 29.91 in 10.0 mi West 6.9 mph - N/A   Overcast
8:34 AM 28.4 °F 19.7 °F 24.8 °F 86% 29.91 in 3.0 mi West 9.2 mph - N/A Snow Light Snow
8:54 AM 26.6 °F 16.2 °F 24.8 °F 93% 29.92 in 0.5 mi WNW 11.5 mph - N/A Snow Heavy Snow
9:14 AM 28.4 °F 19.1 °F 23.0 °F 80% 29.93 in 10.0 mi WNW 10.4 mph - N/A   Overcast
9:34 AM 28.4 °F 19.7 °F 17.6 °F 64% 29.94 in 10.0 mi WNW 9.2 mph 20.7 mph N/A   Mostly Cloudy
9:54 AM 28.4 °F 16.6 °F 15.8 °F 59% 29.94 in 10.0 mi WNW 16.1 mph 19.6 mph N/A   Mostly Cloudy
10:14 AM 28.4 °F 15.8 °F 15.8 °F 59% 29.96 in 10.0 mi WNW 18.4 mph 21.9 mph N/A   Mostly Cloudy
10:34 AM 26.6 °F 14.7 °F 15.8 °F 64% 29.96 in 10.0 mi WNW 15.0 mph 25.3 mph N/A   Scattered Clouds
10:54 AM 28.4 °F 18.5 °F 15.8 °F 59% 29.97 in 10.0 mi WNW 11.5 mph - N/A   Scattered Clouds
11:14 AM 28.4 °F 15.8 °F 15.8 °F 59% 29.98 in 10.0 mi WNW 18.4 mph 25.3 mph N/A   Mostly Cloudy
11:34 AM 30.2 °F 17.8 °F 15.8 °F 55% 29.98 in 10.0 mi West 19.6 mph 25.3 mph N/A   Overcast
11:54 AM 28.4 °F 17.5 °F 17.6 °F 64% 29.99 in 10.0 mi West 13.8 mph 20.7 mph N/A   Overcast
12:14 PM 30.2 °F 18.5 °F 15.8 °F 55% 29.99 in 10.0 mi WNW 17.3 mph 24.2 mph N/A   Overcast
12:34 PM 30.2 °F 19.3 °F 17.6 °F 60% 30.00 in 10.0 mi West 15.0 mph - N/A Snow Light Snow
12:54 PM 30.2 °F 19.3 °F 17.6 °F 60% 30.00 in 10.0 mi West 15.0 mph 23.0 mph N/A   Overcast
1:14 PM 30.2 °F 18.9 °F 17.6 °F 60% 30.00 in 10.0 mi West 16.1 mph 20.7 mph N/A Snow Light Snow
1:34 PM 28.4 °F 16.2 °F 21.2 °F 74% 30.01 in 1.8 mi WNW 17.3 mph 27.6 mph N/A Snow Light Snow
1:54 PM 28.4 °F 16.6 °F 21.2 °F 74% 30.02 in 10.0 mi WNW 16.1 mph 20.7 mph N/A Snow Light Snow
2:14 PM 30.2 °F 17.4 °F 21.2 °F 69% 30.02 in 10.0 mi West 20.7 mph 25.3 mph N/A Snow Light Snow
2:34 PM 30.2 °F 17.8 °F 19.4 °F 64% 30.02 in 4.0 mi West 19.6 mph - N/A   Haze
2:54 PM 30.2 °F 19.3 °F 19.4 °F 64% 30.02 in 10.0 mi WNW 15.0 mph 21.9 mph N/A   Overcast
3:14 PM 30.2 °F 19.3 °F 19.4 °F 64% 30.03 in 4.0 mi WNW 15.0 mph 28.8 mph N/A Snow Light Snow
3:34 PM 30.2 °F 19.3 °F 19.4 °F 64% 30.03 in 10.0 mi West 15.0 mph 20.7 mph N/A   Overcast
3:54 PM 32.0 °F 20.1 °F 19.4 °F 60% 30.04 in 10.0 mi West 19.6 mph 27.6 mph N/A   Overcast
4:14 PM 30.2 °F 20.2 °F 17.6 °F 60% 30.04 in 10.0 mi West 12.7 mph 23.0 mph N/A   Overcast
4:34 PM 30.2 °F 17.8 °F 17.6 °F 60% 30.05 in 7.0 mi West 19.6 mph 25.3 mph N/A Snow Snow
4:54 PM 33.8 °F 25.3 °F 19.4 °F 56% 30.06 in 10.0 mi West 11.5 mph 18.4 mph N/A   Overcast
5:14 PM 32.0 °F 21.6 °F 19.4 °F 60% 30.06 in 10.0 mi WNW 15.0 mph 23.0 mph N/A   Overcast
5:34 PM 32.0 °F 21.6 °F 19.4 °F 60% 30.06 in 10.0 mi WNW 15.0 mph 27.6 mph N/A Snow Light Snow
5:54 PM 32.0 °F 21.6 °F 19.4 °F 60% 30.07 in 10.0 mi WNW 15.0 mph 21.9 mph N/A Snow Light Snow
6:14 PM 30.2 °F 21.3 °F 19.4 °F 64% 30.07 in 10.0 mi WNW 10.4 mph 19.6 mph N/A   Mostly Cloudy
6:34 PM 32.0 °F 23.6 °F 17.6 °F 55% 30.08 in 10.0 mi West 10.4 mph 20.7 mph N/A   Mostly Cloudy
6:54 PM 32.0 °F 23.0 °F 17.6 °F 55% 30.09 in 10.0 mi WNW 11.5 mph 21.9 mph N/A   Mostly Cloudy
7:14 PM 32.0 °F 23.6 °F 17.6 °F 55% 30.09 in 10.0 mi West 10.4 mph 19.6 mph N/A   Mostly Cloudy
7:35 PM 30.2 °F 21.3 °F 17.6 °F 60% 30.09 in 10.0 mi WNW 10.4 mph 18.4 mph N/A   Scattered Clouds
7:54 PM 30.2 °F 20.8 °F 15.8 °F 55% 30.10 in 10.0 mi West 11.5 mph 17.3 mph N/A   Clear
8:14 PM 30.2 °F 21.9 °F 15.8 °F 55% 30.11 in 10.0 mi West 9.2 mph - N/A   Clear
8:34 PM 30.2 °F 20.8 °F 15.8 °F 55% 30.12 in 10.0 mi WNW 11.5 mph 19.6 mph N/A   Clear
8:54 PM 30.2 °F 21.9 °F 15.8 °F 55% 30.13 in 10.0 mi West 9.2 mph 17.3 mph N/A   Clear
9:14 PM 30.2 °F 20.2 °F 14.0 °F 51% 30.13 in 10.0 mi WNW 12.7 mph 17.3 mph N/A   Clear
9:34 PM 30.2 °F 20.2 °F 15.8 °F 55% 30.13 in 10.0 mi West 12.7 mph 16.1 mph N/A   Clear
9:54 PM 30.2 °F 19.8 °F 14.0 °F 51% 30.14 in 10.0 mi West 13.8 mph 18.4 mph N/A   Clear
10:14 PM 30.2 °F 19.8 °F 14.0 °F 51% 30.14 in 10.0 mi WNW 13.8 mph 19.6 mph N/A   Clear
10:34 PM 28.4 °F 15.8 °F 14.0 °F 55% 30.15 in 10.0 mi WNW 18.4 mph - N/A   Clear
10:54 PM 28.4 °F 16.6 °F 14.0 °F 55% 30.16 in 10.0 mi WNW 16.1 mph 20.7 mph N/A   Clear
11:14 PM 28.4 °F 15.4 °F 14.0 °F 55% 30.16 in 10.0 mi WNW 19.6 mph 25.3 mph N/A   Clear
11:34 PM 28.4 °F 18.0 °F 14.0 °F 55% 30.16 in 10.0 mi WNW 12.7 mph 17.3 mph N/A   Clear
11:54 PM 28.4 °F 19.1 °F 12.2 °F 51% 30.16 in 10.0 mi WNW 10.4 mph 23.0 mph N/A   Clear